Location: Baix
(44.7118°N, 4.7648°E)
Time: 19:57:19
(UTC+00:00)

deb Explorer IX - Visible Passes

Search period start: 19 June 2021 00:00
Search period end: 29 June 2021 00:00
Orbit: 542 x 1096 km, 38.8° (Epoch: 18 June)

Date Brightness Start Highest point End Pass type
(mag) Time Alt. Az. Time Alt. Az. Time Alt. Az.
26 Jun ? 02:57:39 10° SSW 03:01:07 20° SSE 03:04:18 10° ESE visible
27 Jun ? 02:34:37 14° SSW 02:37:15 20° SSE 02:40:35 10° ESE visible
28 Jun ? 02:11:38 18° S 02:13:21 21° SSE 02:16:52 10° ESE visible
